Regional Weather Roundup
Issued by NWS

Home | Current Version | Previous Version | Graphics & Text | Print | Product List | Glossary On
Versions: 1 2 3 4 5 6 7 8 9 10 11 12 13 14 15 16 17 18 19 20 21 22 23 24 25 26 27 28 29 30 31 32 33 34 35 36 37 38 39 40 41 42 43 44 45 46 47 48 49 50
000
ASUS45 KABQ 220210
RWRNM
WEATHER ROUNDUP FOR NEW MEXICO
NATIONAL WEATHER SERVICE ALBUQUERQUE NM
800 PM MDT THU AUG 21 2014

NOTE: "FAIR" MEANS FEW OR NO CLOUDS BELOW 12,000 FEET AGL WITH NO
       SIGNIFICANT WEATHER OR OBSTRUCTIONS TO VISION.

      THIS PRODUCT IS RELEASED AS TWO VERSIONS.  ONE VERSION NEAR
      THE TOP OF THE HOUR CONTAINING PRELIMINARY DATA FROM ALBUQUERQUE
      AND OTHER STATIONS.  A FINAL VERSION WITH ADDITIONAL DATA IS
      ISSUED ABOUT 10 MINUTES AFTER THE HOUR.

NMZ501-503-504-510>518-220300-
NORTHWEST PLATEAU/NORTHCENTRAL MOUNTAINS

CITY           SKY/WX    TMP DP  RH WIND       PRES   REMARKS
FARMINGTON     MOCLDY    77  34  21 W10       30.12R
LOS ALAMOS     PTCLDY    73  38  28 SW7       30.23R
SANTA FE       CLEAR     77  35  21 S3        30.15R
TAOS           PTCLDY    72  30  21 SW8       30.22R
ANGEL FIRE     FAIR      60  39  45 CALM      30.32R

$$
NMZ402-403-502-505>509-220300-
WESTCENTRAL MOUNTAINS/SOUTHWEST MOUNTAINS

CITY           SKY/WX    TMP DP  RH WIND       PRES   REMARKS
GALLUP         CLOUDY    66  49  54 SW9       30.22S
SILVER CITY    CLOUDY    77  48  36 W12       30.15R

$$
NMZ407-409-411-412-220300-
SOUTHERN DESERTS

CITY           SKY/WX    TMP DP  RH WIND       PRES   REMARKS
LORDSBURG      FAIR      77  54  44 W10       30.07R
DEMING         CLOUDY    85  44  23 W13       30.03S
LAS CRUCES     PTCLDY    85  45  24 W8        30.05R
HOLLOMAN AFB   MOCLDY    90  46  22 S12       29.99R
ALAMOGORDO     MOCLDY    86  45  23 S8        30.02R
T OR C         MOCLDY    84  41  21 S13       30.04R

$$
NMZ519>523-220300-
CENTRAL VALLEYS/CENTRAL HIGHLANDS

CITY           SKY/WX    TMP DP  RH WIND       PRES   REMARKS
ALBUQUERQUE    PTCLDY    83  37  19 S6        30.08R
DOUBLE EAGLE   MOCLDY    79  37  22 S6        30.12R
MORIARTY ARPT  FAIR      72  43  36 SW3       30.16R
CLINES CORNERS CLEAR     69  42  37 SW9       30.21R
BELEN          FAIR      76  44  32 SW7       30.07R
SOCORRO        FAIR      85  40  20 CALM      30.04S

$$
NMZ524>526-539-540-220300-
SOUTHCENTRAL MOUNTAINS

CITY           SKY/WX    TMP DP  RH WIND       PRES   REMARKS
RUIDOSO        PTCLDY    70  48  46 SW8       30.24R

$$
NMZ527>531-220300-
NORTHEAST HIGHLANDS/NORTHEAST PLAINS

CITY           SKY/WX    TMP DP  RH WIND       PRES   REMARKS
LAS VEGAS      PTCLDY    68  42  38 S10       30.19R
RATON          PTCLDY    76  39  26 S5        30.12R
CLAYTON        CLEAR     77  54  44 SE9       30.05R

$$
NMZ532>537-220300-
EASTCENTRAL PLAINS

CITY           SKY/WX    TMP DP  RH WIND       PRES   REMARKS
TUCUMCARI      CLEAR     86  46  24 S8        29.96R
CANNON AFB     CLEAR     82  51  33 SW6       30.02R
CLOVIS AIRPORT   N/A     86  52  30 S10       30.03S

$$
NMZ028-029-538-220300-
SOUTHEAST PLAINS

CITY           SKY/WX    TMP DP  RH WIND       PRES   REMARKS
ROSWELL        PTCLDY    87  51  28 S7        29.95R
ARTESIA        PTCLDY    90  55  31 SE16G23   29.96R
CARLSBAD       MOCLDY    91  54  28 S20       29.95R
HOBBS          MOCLDY    84  57  39 SE16G26   30.02R


$$



USA.gov is the U.S. government's official web portal to all federal, state and local government web resources and services.